Regional Weather Roundup
Issued by NWS Sioux Falls, SD

Home | Current Version | Previous Version | Text Only | Print | Product List | Glossary Off
Versions: 1 2 3 4 5 6 7 8 9 10 11 12 13 14 15 16 17 18 19 20 21 22 23 24 25 26 27 28 29 30 31 32 33 34 35 36 37 38 39 40 41 42 43 44 45 46 47 48 49 50

000
ASUS43 KFSD 291810
RWRFSD

WEATHER ROUNDUP FOR SE SOUTH DAKOTA/SW MINNESOTA/NW IOWA
NATIONAL WEATHER SERVICE SIOUX FALLS SD
100 PM CDT FRI JUL 29 2016

NOTE: "FAIR" INDICATES FEW OR NO CLOUDS BELOW 12,000 FEET WITH NO
SIGNIFICANT WEATHER AND OR OBSTRUCTIONS TO VISIBILITY.


SDZ038>040-050-052>070-291900-
SOUTHEAST SOUTH DAKOTA

CITY           SKY/WX    TMP DP  RH WIND       PRES   REMARKS
BROOKINGS      SUNNY     74  54  49 E8        30.11F
CHAMBERLAIN    MOSUNNY   82  57  42 SE7       30.09F
6HR MIN TEMP:  65; 6HR MAX TEMP:  82;

HURON          SUNNY     78  54  43 SE8       30.08F
6HR MIN TEMP:  57; 6HR MAX TEMP:  79;

MADISON        FAIR      73  59  60 E8        30.11F
MITCHELL       SUNNY     79  54  41 MISG      30.09F
6HR MIN TEMP:  58; 6HR MAX TEMP:  79;

SIOUX FALLS    MOSUNNY   77  58  51 NE6       30.09F
6HR MIN TEMP:  57; 6HR MAX TEMP:  77;

WINNER         FAIR      77  61  57 E8        30.10F
YANKTON        SUNNY     75  54  46 NE7       30.08F
$$

MNZ071-072-080-081-089-090-097-098-291900-
SOUTHWEST MINNESOTA

CITY           SKY/WX    TMP DP  RH WIND       PRES   REMARKS
FAIRMONT       PTSUNNY   73  63  68 NE7       30.06F
JACKSON        PTSUNNY   72  59  64 N7        30.09F
LUVERNE        SUNNY     73  54  49 NE3       30.10F
MARSHALL       SUNNY     74  55  51 VRB5      30.11F
6HR MIN TEMP:  54; 6HR MAX TEMP:  75;

MONTEVIDEO     SUNNY     79  57  47 E3        30.12F
REDWOOD FALLS  SUNNY     77  53  43 NE8       30.09F
TRACY          MOSUNNY   74  60  60 NE6       30.11S
WINDOM         MOSUNNY   73  57  56 N10       30.09F
WORTHINGTON    PTSUNNY   73  60  63 VRB7      30.10F
$$

IAZ001>003-012>014-020>022-031-032-NEZ013-014-SDZ071-291900-
NORTHWEST IOWA

CITY           SKY/WX    TMP DP  RH WIND       PRES   REMARKS
CHEROKEE       PTSUNNY   74  63  69 N10       30.06F
DENISON        CLOUDY    73  63  68 N14       30.03S
ESTHERVILLE    CLOUDY    72  63  73 N9        30.08S
LE MARS        PTSUNNY   77  59  53 N8G15     30.07F
SHELDON        PTSUNNY   75  63  64 NE9       30.07F
SIOUX CITY     MOSUNNY   79  58  48 NE9       30.06F
6HR MIN TEMP:  63; 6HR MAX TEMP:  80;

SPENCER        CLOUDY    72  59  63 N9        30.08F
6HR MIN TEMP:  60; 6HR MAX TEMP:  74;

STORM LAKE       N/A     72  63  73 NE12      30.07F
$$

ABBREVIATIONS USED IN REMARKS
   TC - TEMPERATURE IN CELSIUS
  WCI - WIND CHILL INDEX
   HX - HEAT INDEX
  VSB - VISIBILITY





USA.gov is the U.S. government's official web portal to all federal, state and local government web resources and services.